logo
Search for airport 
image banner adimage banner adimage banner ad
image banner ad

EHLX - L11-B (Oil Platform)

Located in , Netherlands

ICAO - , IATA -

Data provided by Airmate  

General information

Coordinates: N53°28'20" E4°29'22"
Elevation is feet MSL.
 
View others Airports in Noord-Holland

Operational data

Special qualification required
Current time UTC:
Current local time:
Weather at : EHMG - L9-Ff-1 (Oil Platform) ( 35 km )
METAR: EHMG 180155Z AUTO 23013KT 9999 SCT047 15/13 Q1014
View NOTAMs / SUP AIP / TFR affecting this airport [VIEW]
Communications frequencies: [VIEW]

Runways:

Airport contact information

Address: Netherlands

Satellite view of EHLX